Ветреный

Россия / Магаданская область     61°46′30″N   149°44′16″E
темп.,
°C
ветер,
м/с
пор.,
м/с
влажн.,
%
обл.,
%
осадки,
мм/ч
давл.,
гПа
погр.,
м
28 октября, чт
чт2823:00−19ююв228620 0.0 101916
02:00−20ююв228821 0.0 102018
05:00−20ююв228920 0.0 102018
08:00−20ююв228920 0.0 102017
11:00−17ююз228920 0.0 101964
14:00−13юз228817 0.0 101787
17:00−16ю329017 0.0 101711
20:00−18ю229018 0.0 101812
29 октября, пт
пт2923:00−18ю229651 0.0 101812
02:00−16ю229779 0.1 101618
05:00−17ю229887 0.1 101713
08:00−18ю229992 0.1 101711
11:00−15ююз2296100 0.1 101674
14:00−12юз2295100 0.1 1014135
17:00−13юз2197100 0.3 101519
20:00−17ю229984 0.3 101711
30 октября, сб
сб3023:00−20ююв2210078 0.3 10199
02:00−21ююв1110093 0.0 101912
05:00−23юв1110066 0.0 10209
08:00−24юв119946 0.0 10219
11:00−20юз119820 0.0 102035
14:00−18з119048 0.0 101954
17:00−22юв119452 0.0 10209
20:00−24юв119367 0.0 10229
31 октября, вс
вс3123:00−24вюв119646 0.0 10239
02:00−24в009989 0.1 102311
05:00−23вюв009990 0.1 102411
08:00−23всв1110087 0.1 102513
11:00−20с129995 0.1 102584
14:00−17с269381 0.0 1024353
17:00−22ссв229864 0.0 102611
20:00−24всв1110067 0.0 102912
1 ноября, пн
пн123:00−25в1110075 0.0 10309
02:00−27вюв119970 0.0 10309
05:00−27вюв119879 0.0 10309
08:00−28юв119983 0.0 10319
11:00−25ююз119840 0.0 103041
14:00−22зюз119416 0.0 102762
17:00−26ююв11979 0.0 10289
20:00−28ююв119649 0.0 10299